User: anonymous   Login
Location: Unspecified
(0.0000°N, 0.0000°E)
Time: 08:07:43
(UTC+00:00)
Language:

DIAMOND RED - Orbit

View from above orbital plane
View from above orbital plane
View from above satellite
View from above satellite

Ground track
Ground track

The orbit data is extracted from the following two-line orbital elements,

1 42783U 17036U   17348.11069913  .00000491  00000-0  25187-4 0  9995
2 42783  97.4282  45.6722 0012734  12.3394 347.8151 15.21063622 26378
Epoch (UTC): 14 December 2017 02:39:24
Eccentricity: 0.0012734
inclination: 97.4282°
perigee height: 494 km
apogee height: 511 km
right ascension of ascending node: 45.6722°
argument of perigee: 12.3394°
revolutions per day: 15.21063622
mean anomaly at epoch: 347.8151°
orbit number at epoch: 2637

The dashed part of the orbit path shows where the satellite is in the earth's shadow,  

DLR